Flag Weather past 2 weeks in Meerbusch, North Rhine-Westphalia, Germany

Now
45 °F

Light rain. Broken clouds.


Feels Like: 38 °F
Forecast: 42 / 48 °F
Wind: 14 mph from Southeast

Location: Duesseldorf

Current Time: Nov 26, 2014 at 4:28:40 PM

Latest Report: Nov 26, 2014 at 3:50 PM


Visibility: N/A

Pressure: 29.95 "Hg

Humidity: 71%

Dew point: 36 °F

Location of MeerbuschLocation

Historic Weather in Meerbusch — Graph

°F

Meerbusch temperature yesterday

Maximum temperature yesterday: 50 °F (at 12:50 PM)
Minimum temperature yesterday: 30 °F (at 3:50 AM)
Average temperature yesterday: 38 °F

Past Weeks' High & Low Weather Summary

 TemperatureHumidityPressure
High59 °F (Nov 23, 1:50 PM)100% (Nov 13, 2:50 AM)30.33 "Hg (Nov 13, 2:50 AM)
Low30 °F (Nov 25, 3:50 AM)58% (Nov 21, 1:50 PM)29.50 "Hg (Nov 16, 4:20 PM)
Average47 °F84%29.93 "Hg
* Reported Nov 11 3:20 PM — Nov 26 3:20 PM, Meerbusch, Weather by CustomWeather, © 2014

Note: Actual official high and low records may vary slightly from our data, if they occured in-between our weather recording intervals... More about our weather records

Advertising

Meerbusch weather history for previous 24 hours

 ConditionsComfort  
Time TempWeatherWind HumidityBarometerVisibility
3:20 PM
Nov 26
45 °FLight rain. Partly sunny.13 mph71%29.95 "HgN/A
2:50 PM45 °FSunny.13 mph71%29.95 "Hg10 mi
2:20 PM45 °FSunny.14 mph66%29.95 "Hg10 mi
1:50 PM45 °FSunny.13 mph66%29.95 "Hg10 mi
1:20 PM45 °FSunny.10 mph71%29.98 "Hg10 mi
12:50 PM45 °FSunny.14 mph66%29.98 "Hg10 mi
12:20 PM43 °FSunny.12 mph71%29.98 "Hg10 mi
11:50 AM43 °FSunny.14 mph71%29.98 "Hg10 mi
11:20 AM43 °FSunny.16 mph71%30.01 "Hg10 mi
10:50 AM43 °FSunny.17 mph71%30.01 "Hg10 mi
10:20 AM41 °FSunny.12 mph76%30.01 "Hg10 mi
9:50 AM41 °FSunny.10 mph76%30.01 "Hg10 mi
9:20 AM41 °FSunny.9 mph76%30.01 "Hg10 mi
8:50 AM39 °FSunny.9 mph75%30.01 "Hg10 mi
8:20 AM39 °FSunny.8 mph75%30.04 "Hg10 mi
7:50 AM39 °FClear.8 mph75%30.01 "Hg10 mi
7:20 AM39 °FClear.10 mph75%30.04 "Hg10 mi
6:50 AM39 °FClear.13 mph75%30.04 "Hg10 mi
6:20 AM39 °FPassing clouds.10 mph81%30.04 "HgN/A
5:50 AM39 °FPassing clouds.9 mph81%30.04 "HgN/A
5:20 AM39 °FPassing clouds.10 mph81%30.04 "HgN/A
4:20 AM41 °FPassing clouds.10 mph81%30.07 "HgN/A
3:50 AM39 °FPartly cloudy.8 mph87%30.07 "HgN/A
3:20 AM37 °FPassing clouds.10 mph87%30.07 "HgN/A
2:50 AM37 °FPassing clouds.9 mph87%30.09 "HgN/A
2:20 AM36 °FPassing clouds.9 mph87%30.09 "HgN/A
1:50 AM36 °FPassing clouds.7 mph93%30.09 "HgN/A
1:20 AM36 °FClear.7 mph93%30.09 "Hg10 mi
12:50 AM36 °FClear.6 mph93%30.12 "Hg10 mi
12:20 AM34 °FClear.6 mph93%30.12 "Hg10 mi
11:50 PM
Nov 25
36 °FClear.7 mph87%30.12 "Hg10 mi
11:20 PM36 °FClear.8 mph87%30.12 "Hg10 mi
10:50 PM36 °FClear.6 mph87%30.15 "Hg10 mi
10:20 PM36 °FClear.6 mph93%30.15 "Hg10 mi
9:50 PM36 °FClear.6 mph93%30.15 "Hg10 mi
9:20 PM36 °FClear.7 mph93%30.15 "Hg10 mi
8:50 PM36 °FClear.7 mph93%30.15 "Hg10 mi
8:20 PM37 °FClear.7 mph93%30.15 "Hg10 mi
7:50 PM37 °FClear.7 mph93%30.18 "Hg10 mi
7:20 PM37 °FClear.8 mph93%30.18 "Hg10 mi
6:50 PM41 °FClear.8 mph87%30.18 "Hg10 mi
6:20 PM43 °FClear.8 mph81%30.18 "Hg10 mi
5:50 PM43 °FClear.7 mph81%30.18 "Hg10 mi
5:20 PM45 °FClear.10 mph76%30.18 "Hg10 mi
4:50 PM46 °FClear.10 mph71%30.18 "Hg10 mi
4:20 PM46 °FSunny.9 mph71%30.18 "Hg10 mi
Weather by CustomWeather, © 2014

See weather overviewHow to use our weather pages